Time,TemperatureF,DewpointF,PressureIn,WindDirection,WindDirectionDegrees,WindSpeedMPH,WindSpeedGustMPH,Humidity,HourlyPrecipIn,Conditions,Clouds,dailyrainin,SoftwareType,DateUTC
2013-07-22 00:10:00,70.0,69.0,29.91,NNE,15,0.0,3.0,97,1.10,,,0.04,weatherlink.com 1.10,2013-07-22 04:10:00,
2013-07-22 00:25:00,70.0,69.0,29.90,ENE,59,0.0,7.0,97,0.71,,,0.08,weatherlink.com 1.10,2013-07-22 04:25:00,
2013-07-22 00:40:00,69.7,69.0,29.89,ENE,57,0.0,4.0,97,0.29,,,0.13,weatherlink.com 1.10,2013-07-22 04:40:00,
2013-07-22 00:55:00,69.5,68.0,29.87,ENE,57,0.0,0.0,96,0.18,,,0.16,weatherlink.com 1.10,2013-07-22 04:55:00,
2013-07-22 01:10:00,69.3,68.0,29.86,ENE,57,0.0,0.0,96,0.14,,,0.18,weatherlink.com 1.10,2013-07-22 05:10:00,
2013-07-22 01:25:00,69.2,68.0,29.85,ENE,57,0.0,0.0,97,0.10,,,0.18,weatherlink.com 1.10,2013-07-22 05:25:00,
2013-07-22 01:40:00,69.1,68.0,29.84,ENE,57,0.0,0.0,97,0.04,,,0.18,weatherlink.com 1.10,2013-07-22 05:40:00,
2013-07-22 01:56:00,69.2,68.0,29.84,ENE,57,0.0,0.0,97,0.02,,,0.18,weatherlink.com 1.10,2013-07-22 05:56:00,
2013-07-22 02:10:00,69.1,68.0,29.84,ENE,57,0.0,0.0,97,0.00,,,0.18,weatherlink.com 1.10,2013-07-22 06:10:00,
2013-07-22 02:25:00,69.1,68.0,29.84,ENE,57,0.0,0.0,97,0.00,,,0.18,weatherlink.com 1.10,2013-07-22 06:25:00,
2013-07-22 02:40:00,69.0,68.0,29.82,ENE,57,0.0,0.0,97,0.00,,,0.18,weatherlink.com 1.10,2013-07-22 06:40:00,
2013-07-22 02:55:00,69.1,68.0,29.81,ENE,57,0.0,0.0,97,0.00,,,0.18,weatherlink.com 1.10,2013-07-22 06:55:00,
2013-07-22 03:10:00,69.0,68.0,29.81,SE,141,0.0,3.0,97,0.00,,,0.18,weatherlink.com 1.10,2013-07-22 07:10:00,
2013-07-22 03:25:00,69.0,68.0,29.81,SE,141,0.0,1.0,97,0.00,,,0.18,weatherlink.com 1.10,2013-07-22 07:25:00,
2013-07-22 03:40:00,69.2,68.0,29.81,SE,141,0.0,2.0,97,0.00,,,0.18,weatherlink.com 1.10,2013-07-22 07:40:00,
2013-07-22 03:55:00,69.2,68.0,29.81,South,169,0.0,4.0,97,0.00,,,0.18,weatherlink.com 1.10,2013-07-22 07:55:00,
2013-07-22 04:10:00,69.4,69.0,29.81,SSE,166,0.0,4.0,97,0.00,,,0.18,weatherlink.com 1.10,2013-07-22 08:10:00,
2013-07-22 04:26:00,69.5,69.0,29.80,South,178,1.0,6.0,97,0.00,,,0.18,weatherlink.com 1.10,2013-07-22 08:26:00,
2013-07-22 04:40:00,69.6,69.0,29.80,South,171,1.0,4.0,97,0.00,,,0.18,weatherlink.com 1.10,2013-07-22 08:40:00,
2013-07-22 05:10:00,69.7,69.0,29.80,South,180,0.0,0.0,97,0.00,,,0.18,weatherlink.com 1.10,2013-07-22 09:10:00,
2013-07-22 05:26:00,69.7,69.0,29.80,South,184,2.0,4.0,98,0.00,,,0.18,weatherlink.com 1.10,2013-07-22 09:26:00,
2013-07-22 05:41:00,69.8,69.0,29.80,South,184,3.0,5.0,98,0.00,,,0.18,weatherlink.com 1.10,2013-07-22 09:41:00,
2013-07-22 05:56:00,69.8,69.0,29.80,South,182,0.0,2.0,98,0.00,,,0.18,weatherlink.com 1.10,2013-07-22 09:56:00,
2013-07-22 06:11:00,69.8,69.0,29.80,SSW,192,0.0,4.0,98,0.00,,,0.18,weatherlink.com 1.10,2013-07-22 10:11:00,
2013-07-22 06:26:00,69.8,69.0,29.80,South,190,2.0,5.0,98,0.00,,,0.18,weatherlink.com 1.10,2013-07-22 10:26:00,
2013-07-22 06:41:00,69.8,69.0,29.81,South,182,0.0,4.0,97,0.01,,,0.19,weatherlink.com 1.10,2013-07-22 10:41:00,
2013-07-22 06:56:00,69.8,69.0,29.81,South,188,0.0,1.0,98,0.02,,,0.20,weatherlink.com 1.10,2013-07-22 10:56:00,
2013-07-22 07:11:00,69.9,69.0,29.81,WSW,246,1.0,3.0,98,0.04,,,0.22,weatherlink.com 1.10,2013-07-22 11:11:00,
2013-07-22 07:26:00,69.8,69.0,29.81,South,186,0.0,6.0,98,0.06,,,0.24,weatherlink.com 1.10,2013-07-22 11:26:00,
2013-07-22 07:41:00,69.8,69.0,29.80,South,191,0.0,4.0,98,0.07,,,0.26,weatherlink.com 1.10,2013-07-22 11:41:00,
2013-07-22 07:56:00,69.7,69.0,29.80,South,178,0.0,4.0,98,0.07,,,0.27,weatherlink.com 1.10,2013-07-22 11:56:00,
2013-07-22 08:11:00,69.9,69.0,29.80,South,178,0.0,2.0,98,0.05,,,0.27,weatherlink.com 1.10,2013-07-22 12:11:00,
2013-07-22 08:26:00,69.9,69.0,29.80,South,178,1.0,2.0,98,0.03,,,0.27,weatherlink.com 1.10,2013-07-22 12:26:00,
2013-07-22 08:41:00,70.0,69.0,29.81,South,175,0.0,1.0,98,0.01,,,0.27,weatherlink.com 1.10,2013-07-22 12:41:00,
2013-07-22 08:56:00,70.2,70.0,29.80,South,173,1.0,5.0,98,0.00,,,0.27,weatherlink.com 1.10,2013-07-22 12:56:00,
2013-07-22 09:11:00,70.4,70.0,29.80,South,169,1.0,6.0,98,0.00,,,0.27,weatherlink.com 1.10,2013-07-22 13:11:00,
2013-07-22 09:26:00,71.0,70.0,29.80,South,172,2.0,5.0,98,0.00,,,0.27,weatherlink.com 1.10,2013-07-22 13:26:00,
2013-07-22 09:41:00,71.2,70.0,29.80,South,179,1.0,7.0,97,0.00,,,0.27,weatherlink.com 1.10,2013-07-22 13:41:00,
2013-07-22 09:56:00,71.2,70.0,29.80,SSW,198,0.0,4.0,97,0.00,,,0.27,weatherlink.com 1.10,2013-07-22 13:56:00,
2013-07-22 10:11:00,71.4,71.0,29.80,South,186,0.0,4.0,97,0.00,,,0.27,weatherlink.com 1.10,2013-07-22 14:11:00,
2013-07-22 10:26:00,71.3,70.0,29.80,South,182,1.0,5.0,96,0.00,,,0.27,weatherlink.com 1.10,2013-07-22 14:26:00,
2013-07-22 10:41:00,71.3,70.0,29.80,SSW,200,1.0,4.0,96,0.00,,,0.27,weatherlink.com 1.10,2013-07-22 14:41:00,
2013-07-22 10:56:00,71.4,70.0,29.81,SSW,200,0.0,0.0,96,0.00,,,0.27,weatherlink.com 1.10,2013-07-22 14:56:00,
2013-07-22 11:11:00,71.5,70.0,29.80,SSW,200,0.0,2.0,96,0.00,,,0.27,weatherlink.com 1.10,2013-07-22 15:11:00,
2013-07-22 11:26:00,71.6,71.0,29.81,SSW,200,0.0,1.0,97,0.00,,,0.27,weatherlink.com 1.10,2013-07-22 15:26:00,
2013-07-22 11:41:00,71.8,71.0,29.81,SSW,200,0.0,0.0,97,0.00,,,0.27,weatherlink.com 1.10,2013-07-22 15:41:00,
2013-07-22 11:56:00,72.0,71.0,29.80,SSW,200,0.0,2.0,96,0.00,,,0.27,weatherlink.com 1.10,2013-07-22 15:56:00,
2013-07-22 12:11:00,72.8,71.0,29.80,SSW,196,1.0,4.0,95,0.00,,,0.27,weatherlink.com 1.10,2013-07-22 16:11:00,
2013-07-22 12:26:00,73.9,72.0,29.80,South,183,0.0,4.0,94,0.00,,,0.27,weatherlink.com 1.10,2013-07-22 16:26:00,
2013-07-22 12:41:00,74.4,72.0,29.80,SSW,196,1.0,5.0,92,0.00,,,0.27,weatherlink.com 1.10,2013-07-22 16:41:00,
2013-07-22 12:56:00,74.8,72.0,29.80,WSW,242,4.0,6.0,91,0.00,,,0.27,weatherlink.com 1.10,2013-07-22 16:56:00,
2013-07-22 13:11:00,75.0,72.0,29.80,SW,215,1.0,7.0,89,0.00,,,0.27,weatherlink.com 1.10,2013-07-22 17:11:00,
2013-07-22 13:26:00,75.3,72.0,29.80,WSW,241,2.0,4.0,89,0.00,,,0.27,weatherlink.com 1.10,2013-07-22 17:26:00,
2013-07-22 13:41:00,75.1,72.0,29.79,WSW,251,0.0,5.0,91,0.00,,,0.27,weatherlink.com 1.10,2013-07-22 17:41:00,
2013-07-22 13:56:00,76.6,73.0,29.79,SW,232,3.0,4.0,87,0.00,,,0.27,weatherlink.com 1.10,2013-07-22 17:56:00,
2013-07-22 14:11:00,78.2,74.0,29.78,WSW,239,0.0,7.0,88,0.00,,,0.27,weatherlink.com 1.10,2013-07-22 18:11:00,
2013-07-22 14:41:00,79.9,73.0,29.78,West,275,4.0,6.0,80,0.00,,,0.27,weatherlink.com 1.10,2013-07-22 18:41:00,
2013-07-22 14:56:00,80.9,74.0,29.78,WSW,256,2.0,5.0,79,0.00,,,0.27,weatherlink.com 1.10,2013-07-22 18:56:00,
2013-07-22 15:11:00,81.5,75.0,29.77,SSW,202,3.0,6.0,80,0.00,,,0.27,weatherlink.com 1.10,2013-07-22 19:11:00,
2013-07-22 15:26:00,81.9,72.0,29.77,West,269,5.0,7.0,73,0.00,,,0.27,weatherlink.com 1.10,2013-07-22 19:26:00,
2013-07-22 15:41:00,80.3,73.0,29.78,South,182,0.0,9.0,77,0.00,,,0.27,weatherlink.com 1.10,2013-07-22 19:41:00,
2013-07-22 15:56:00,78.3,72.0,29.78,West,273,2.0,6.0,82,0.00,,,0.27,weatherlink.com 1.10,2013-07-22 19:56:00,
2013-07-22 16:11:00,78.0,75.0,29.77,WNW,285,0.0,5.0,89,0.05,,,0.32,weatherlink.com 1.10,2013-07-22 20:11:00,
2013-07-22 16:26:00,79.7,75.0,29.77,West,263,0.0,7.0,86,0.05,,,0.32,weatherlink.com 1.10,2013-07-22 20:26:00,
2013-07-22 16:41:00,81.2,75.0,29.76,WSW,256,2.0,7.0,80,0.05,,,0.32,weatherlink.com 1.10,2013-07-22 20:41:00,
2013-07-22 16:57:00,82.4,75.0,29.76,SW,234,4.0,6.0,79,0.05,,,0.32,weatherlink.com 1.10,2013-07-22 20:57:00,
2013-07-22 17:12:00,82.2,74.0,29.75,SSW,209,6.0,9.0,75,0.00,,,0.32,weatherlink.com 1.10,2013-07-22 21:12:00,
2013-07-22 17:27:00,83.1,73.0,29.76,SW,220,4.0,7.0,72,0.00,,,0.32,weatherlink.com 1.10,2013-07-22 21:27:00,
2013-07-22 17:42:00,83.3,73.0,29.76,WSW,257,2.0,10.0,70,0.00,,,0.32,weatherlink.com 1.10,2013-07-22 21:42:00,
2013-07-22 17:57:00,83.2,72.0,29.76,SW,234,4.0,7.0,70,0.00,,,0.32,weatherlink.com 1.10,2013-07-22 21:57:00,
2013-07-22 18:12:00,83.3,73.0,29.77,West,279,3.0,7.0,71,0.00,,,0.32,weatherlink.com 1.10,2013-07-22 22:12:00,
2013-07-22 18:27:00,83.6,73.0,29.77,SW,232,1.0,9.0,71,0.00,,,0.32,weatherlink.com 1.10,2013-07-22 22:27:00,
2013-07-22 18:42:00,84.4,73.0,29.76,NW,319,1.0,9.0,69,0.00,,,0.32,weatherlink.com 1.10,2013-07-22 22:42:00,
2013-07-22 18:57:00,82.7,72.0,29.76,WNW,297,4.0,10.0,71,0.00,,,0.32,weatherlink.com 1.10,2013-07-22 22:57:00,
2013-07-22 19:12:00,82.9,73.0,29.76,WNW,296,1.0,6.0,73,0.00,,,0.32,weatherlink.com 1.10,2013-07-22 23:12:00,
2013-07-22 19:27:00,82.6,74.0,29.76,NW,324,3.0,3.0,74,0.00,,,0.32,weatherlink.com 1.10,2013-07-22 23:27:00,
2013-07-22 19:42:00,81.6,73.0,29.76,West,261,1.0,5.0,74,0.00,,,0.32,weatherlink.com 1.10,2013-07-22 23:42:00,
2013-07-22 19:57:00,80.7,72.0,29.76,WSW,243,0.0,3.0,75,0.00,,,0.32,weatherlink.com 1.10,2013-07-22 23:57:00,
2013-07-22 20:12:00,80.3,72.0,29.77,WNW,284,0.0,6.0,76,0.00,,,0.32,weatherlink.com 1.10,2013-07-23 00:12:00,
2013-07-22 20:27:00,80.0,72.0,29.77,West,270,2.0,4.0,76,0.00,,,0.32,weatherlink.com 1.10,2013-07-23 00:27:00,
2013-07-22 20:42:00,79.3,72.0,29.77,WNW,290,0.0,2.0,77,0.00,,,0.32,weatherlink.com 1.10,2013-07-23 00:42:00,
2013-07-22 20:57:00,78.4,71.0,29.77,WNW,290,0.0,1.0,79,0.00,,,0.32,weatherlink.com 1.10,2013-07-23 00:57:00,
2013-07-22 21:12:00,77.2,72.0,29.77,WNW,290,0.0,1.0,84,0.00,,,0.32,weatherlink.com 1.10,2013-07-23 01:12:00,
2013-07-22 21:27:00,75.8,72.0,29.77,WNW,290,1.0,1.0,87,0.00,,,0.32,weatherlink.com 1.10,2013-07-23 01:27:00,
2013-07-22 21:42:00,74.6,71.0,29.78,WNW,290,0.0,0.0,88,0.00,,,0.32,weatherlink.com 1.10,2013-07-23 01:42:00,
2013-07-22 21:57:00,73.7,71.0,29.79,WNW,290,0.0,0.0,90,0.00,,,0.32,weatherlink.com 1.10,2013-07-23 01:57:00,
2013-07-22 22:12:00,72.8,70.0,29.79,WNW,290,1.0,2.0,91,0.00,,,0.32,weatherlink.com 1.10,2013-07-23 02:12:00,
2013-07-22 22:27:00,72.2,70.0,29.80,WNW,290,0.0,0.0,92,0.00,,,0.32,weatherlink.com 1.10,2013-07-23 02:27:00,
2013-07-22 22:42:00,71.7,70.0,29.80,WNW,290,0.0,0.0,93,0.00,,,0.32,weatherlink.com 1.10,2013-07-23 02:42:00,
2013-07-22 22:57:00,71.3,69.0,29.81,WNW,290,0.0,0.0,93,0.00,,,0.32,weatherlink.com 1.10,2013-07-23 02:57:00,
2013-07-22 23:12:00,70.9,69.0,29.81,WNW,290,0.0,0.0,94,0.00,,,0.32,weatherlink.com 1.10,2013-07-23 03:12:00,
2013-07-22 23:27:00,70.6,69.0,29.81,WNW,290,0.0,0.0,94,0.00,,,0.32,weatherlink.com 1.10,2013-07-23 03:27:00,
2013-07-22 23:42:00,70.2,69.0,29.82,WNW,290,0.0,0.0,94,0.00,,,0.32,weatherlink.com 1.10,2013-07-23 03:42:00,
2013-07-22 23:57:00,69.9,68.0,29.82,WNW,290,0.0,0.0,94,0.00,,,0.32,weatherlink.com 1.10,2013-07-23 03:57:00,